New Philadelphia, OH

12:39 PM EST on November 21, 2017 (GMT -0500)
Clever

Weather History for KPHD - March, 2013

Change the Weather History Date:

Tuesday, March 26, 2013

  Actual Average Record
Temperature  
Mean Temperature 39 °F 44 °F  
Max Temperature 44 °F 55 °F 77 °F (1986)
Min Temperature 33 °F 32 °F 5 °F (1974)
Degree Days  
Heating Degree Days 26 21  
Month to date heating degree days 763 677  
Since 1 July heating degree days 4893 4884  
Cooling Degree Days 0 0  
Month to date cooling degree days 0 0  
Year to date cooling degree days 0 0  
Moisture  
Dew Point 29 °F    
Average Humidity 71    
Maximum Humidity 89    
Minimum Humidity 53    
Precipitation  
Precipitation T in 0.11 in 0.72 in (2002)
Month to date precipitation 1.58 2.53  
Year to date precipitation 4.74 7.49  
Sea Level Pressure  
Sea Level Pressure 29.99 in    
Wind  
Wind Speed 7 mph (NW)    
Max Wind Speed 17 mph    
Max Gust Speed 23 mph    
Visibility 9 miles    
Events Snow    
T = Trace of Precipitation, MM = Missing Value Source: NWS Daily Summary

Daily Weather History Graph

Daily Weather History Graph

Search for Another Location

Airport or City:

Trip Planner

Search our weather history database for the weather conditions in past years. The results will help you decide how hot, cold, wet, or windy it might be!

Date:

Astronomy

Mar. 26, 2013 Rise Set
Actual Time 7:18 AM EDT 7:44 PM EDT
Civil Twilight 6:51 AM EDT 8:11 PM EDT
Nautical Twilight 6:19 AM EDT 8:43 PM EDT
Astronomical Twilight 5:46 AM EDT 9:16 PM EDT
Moon 7:19 PM EDT (3/26) 6:34 AM EDT (3/26)
Length of Visible Light 13h 20m
Length of Day
12h 25m
Waxing Gibbous, 99% of the Moon is Illuminated
Mar 26
Waxing Gibbous
Mar 27
Full
Apr 3
Last Quarter
Apr 10
New
Apr 18
First Quarter

Hourly Weather History & Observations

Time (EDT) Temp. Windchill Dew Point Humidity Pressure Visibility Wind Dir Wind Speed Gust Speed Precip Events Conditions
12:53 AM 34.0 °F 27.2 °F 30.0 °F 85% 29.84 in 7.0 mi NW 8.1 mph - 0.00 in Snow Light Snow
1:53 AM 34.0 °F 28.0 °F 30.0 °F 85% 29.86 in 8.0 mi NNW 6.9 mph - 0.00 in   Overcast
2:09 AM 33.8 °F 27.7 °F 30.2 °F 87% 29.84 in 7.0 mi NW 6.9 mph - N/A   Overcast
2:31 AM 33.8 °F 27.0 °F 30.2 °F 87% 29.85 in 8.0 mi NNW 8.1 mph - N/A   Overcast
2:53 AM 34.0 °F 29.8 °F 30.0 °F 85% 29.87 in 8.0 mi NW 4.6 mph - N/A   Overcast
3:27 AM 33.8 °F 29.6 °F 30.2 °F 87% 29.85 in 8.0 mi NW 4.6 mph - N/A   Overcast
3:53 AM 34.0 °F 29.8 °F 30.0 °F 85% 29.88 in 9.0 mi WNW 4.6 mph - N/A   Overcast
4:20 AM 33.8 °F 29.6 °F 28.4 °F 81% 29.86 in 10.0 mi WNW 4.6 mph - N/A   Overcast
4:53 AM 33.1 °F 28.7 °F 28.9 °F 85% 29.89 in 10.0 mi WNW 4.6 mph - N/A   Overcast
5:53 AM 33.1 °F 30.0 °F 28.9 °F 85% 29.91 in 10.0 mi WNW 3.5 mph - N/A   Overcast
6:48 AM 33.8 °F 27.7 °F 28.4 °F 81% 29.91 in 10.0 mi WNW 6.9 mph - N/A   Overcast
6:53 AM 33.1 °F 26.1 °F 28.9 °F 85% 29.94 in 10.0 mi WNW 8.1 mph - N/A   Overcast
7:53 AM 33.1 °F 27.7 °F 28.9 °F 85% 29.96 in 10.0 mi WNW 5.8 mph - N/A   Overcast
8:00 AM 33.8 °F 29.6 °F 28.4 °F 81% 29.93 in 10.0 mi WNW 4.6 mph - N/A   Overcast
8:53 AM 34.0 °F 28.8 °F 28.0 °F 79% 29.98 in 10.0 mi NW 5.8 mph - N/A   Overcast
9:53 AM 35.1 °F 27.9 °F 28.0 °F 76% 30.00 in 10.0 mi WNW 9.2 mph - N/A   Overcast
10:53 AM 36.0 °F 30.3 °F 28.0 °F 73% 30.01 in 10.0 mi NW 6.9 mph - N/A   Overcast
11:53 AM 36.0 °F 29.6 °F 28.9 °F 76% 30.04 in 7.0 mi WNW 8.1 mph - 0.00 in Snow Light Snow
12:08 PM 35.6 °F 28.0 °F 30.2 °F 81% 30.01 in 2.5 mi NW 10.4 mph - 0.00 in Snow Light Snow
12:12 PM 35.6 °F 29.2 °F 30.2 °F 81% 30.01 in 1.8 mi WNW 8.1 mph - 0.00 in Snow Light Snow
12:16 PM 35.6 °F 30.7 °F 30.2 °F 81% 30.01 in 2.0 mi WNW 5.8 mph - 0.00 in Snow Light Snow
12:23 PM 37.4 °F 30.8 °F 30.2 °F 75% 30.01 in 9.0 mi WNW 9.2 mph - 0.00 in Snow Light Snow
12:53 PM 37.0 °F 31.0 °F 30.9 °F 79% 30.04 in 10.0 mi WNW 8.1 mph - 0.00 in   Overcast
1:53 PM 37.9 °F 31.5 °F 30.0 °F 73% 30.04 in 10.0 mi WNW 9.2 mph - N/A   Overcast
2:53 PM 39.0 °F 33.4 °F 30.9 °F 73% 30.04 in 10.0 mi NW 8.1 mph - N/A   Overcast
3:51 PM 39.2 °F 32.5 °F 28.4 °F 65% 30.02 in 10.0 mi NW 10.4 mph - N/A   Overcast
3:53 PM 39.9 °F 33.9 °F 28.9 °F 65% 30.04 in 10.0 mi NNW 9.2 mph - N/A   Overcast
4:53 PM 42.1 °F 36.1 °F 28.9 °F 60% 30.04 in 10.0 mi WNW 10.4 mph 18.4 mph N/A   Overcast
5:53 PM 43.0 °F 37.2 °F 27.0 °F 53% 30.04 in 10.0 mi WNW 10.4 mph 19.6 mph N/A   Overcast
6:53 PM 39.9 °F 35.8 °F 28.0 °F 63% 30.07 in 10.0 mi North 5.8 mph - N/A   Overcast
7:53 PM 37.9 °F 33.5 °F 28.9 °F 70% 30.09 in 7.0 mi North 5.8 mph - 0.00 in Snow Light Snow
8:53 PM 37.0 °F 33.3 °F 28.0 °F 70% 30.11 in 10.0 mi WNW 4.6 mph - 0.00 in   Mostly Cloudy
9:53 PM 36.0 °F 31.1 °F 26.1 °F 67% 30.13 in 10.0 mi West 5.8 mph - N/A   Mostly Cloudy
10:53 PM 35.1 °F 31.0 °F 27.0 °F 72% 30.13 in 10.0 mi WNW 4.6 mph - N/A   Mostly Cloudy
11:41 PM 35.6 °F 32.8 °F 26.6 °F 70% 30.11 in 10.0 mi West 3.5 mph - N/A   Overcast
11:53 PM 35.1 °F 32.2 °F 28.0 °F 76% 30.14 in 10.0 mi Variable 3.5 mph - N/A   Overcast